Location: Rowland
(34.5359°N, 79.2929°W)
Time: 16:46:04
(UTC+00:00)

A-11 Canister half - Pass Details

Date: 10 October 2022
Orbit: 1515 x 1684 km, 47.2° (Epoch: 06 December)

Event Time Altitude Azimuth Distance (km) Brightness Sun altitude
Rises 02:59:04 0° 287° (WNW) 4,819 12.2 -49.9°
Reaches altitude 10° 03:02:35 10° 296° (WNW) 3,807 11.5 -50.4°
Enters shadow 03:08:22 31° 327° (NNW) 2,475 10.2 -51.4°
